,,PressureMeas_1m,,PRMeasQMR101_1,,RHStat155_1m_1,,SRMeasQMS101R_1m,,TAStat155_1m_1,,GenWind_1,,GenWind_1,
2019-01-24, 00:00:07,VALID,919.593,VALID,0.0,VALID,88.627,VALID,-0.007,VALID,20.989,VALID,40.0,VALID,2.271,
2019-01-24, 00:01:07,VALID,919.619,VALID,0.0,VALID,88.944,VALID,-0.016,VALID,20.95,VALID,40.0,VALID,2.116,
2019-01-24, 00:02:07,VALID,919.612,VALID,0.0,VALID,88.909,VALID,-0.018,VALID,20.948,VALID,39.0,VALID,1.459,
2019-01-24, 00:03:07,VALID,919.608,VALID,0.0,VALID,88.744,VALID,-0.018,VALID,20.987,VALID,31.0,VALID,0.757,
2019-01-24, 00:04:07,VALID,919.604,VALID,0.0,VALID,88.574,VALID,-0.004,VALID,21.016,VALID,38.0,VALID,1.061,
2019-01-24, 00:05:07,VALID,919.622,VALID,0.0,VALID,88.436,VALID,-0.005,VALID,21.022,VALID,40.0,VALID,1.406,
2019-01-24, 00:06:07,VALID,919.59,VALID,0.0,VALID,88.537,VALID,-0.014,VALID,20.997,VALID,39.0,VALID,1.621,
2019-01-24, 00:07:07,VALID,919.605,VALID,0.0,VALID,88.32,VALID,0.003,VALID,20.987,VALID,40.0,VALID,2.388,
2019-01-24, 00:08:07,VALID,919.593,VALID,0.0,VALID,88.207,VALID,-0.007,VALID,20.955,VALID,40.0,VALID,2.478,
2019-01-24, 00:09:07,VALID,919.552,VALID,0.0,VALID,88.163,VALID,-0.012,VALID,20.941,VALID,40.0,VALID,2.725,
2019-01-24, 00:10:07,VALID,919.538,VALID,0.0,VALID,87.628,VALID,0.003,VALID,21.02,VALID,40.0,VALID,2.939,
2019-01-24, 00:11:07,VALID,919.512,VALID,0.0,VALID,87.114,VALID,-0.008,VALID,21.113,VALID,40.0,VALID,2.323,
2019-01-24, 00:12:07,VALID,919.488,VALID,0.0,VALID,87.153,VALID,0.021,VALID,21.075,VALID,40.0,VALID,2.387,
2019-01-24, 00:13:07,VALID,919.464,VALID,0.0,VALID,87.185,VALID,0.013,VALID,21.039,VALID,40.0,VALID,2.9,
2019-01-24, 00:14:07,VALID,919.452,VALID,0.0,VALID,86.716,VALID,0.029,VALID,21.096,VALID,40.0,VALID,3.273,
2019-01-24, 00:15:07,VALID,919.425,VALID,0.0,VALID,86.468,VALID,0.008,VALID,21.145,VALID,40.0,VALID,2.706,
2019-01-24, 00:16:07,VALID,919.42,VALID,0.0,VALID,86.09,VALID,0.02,VALID,21.218,VALID,40.0,VALID,2.027,
2019-01-24, 00:17:07,VALID,919.428,VALID,0.0,VALID,85.819,VALID,0.009,VALID,21.267,VALID,40.0,VALID,2.698,
2019-01-24, 00:18:07,VALID,919.413,VALID,0.0,VALID,85.989,VALID,0.021,VALID,21.265,VALID,40.0,VALID,1.861,
2019-01-24, 00:19:07,VALID,919.404,VALID,0.0,VALID,86.306,VALID,0.016,VALID,21.215,VALID,40.0,VALID,1.743,
2019-01-24, 00:20:07,VALID,919.387,VALID,0.0,VALID,86.665,VALID,0.012,VALID,21.146,VALID,35.0,VALID,1.184,
2019-01-24, 00:21:07,VALID,919.383,VALID,0.0,VALID,86.882,VALID,0.009,VALID,21.072,VALID,41.0,VALID,2.329,
2019-01-24, 00:22:07,VALID,919.376,VALID,0.0,VALID,87.004,VALID,0.012,VALID,21.081,VALID,36.0,VALID,1.92,
2019-01-24, 00:23:07,VALID,919.37,VALID,0.0,VALID,87.105,VALID,-0.006,VALID,21.087,VALID,40.0,VALID,1.259,
2019-01-24, 00:24:07,VALID,919.368,VALID,0.0,VALID,87.129,VALID,0.011,VALID,21.063,VALID,39.0,VALID,2.433,
2019-01-24, 00:25:07,VALID,919.404,VALID,0.0,VALID,86.942,VALID,0.031,VALID,21.087,VALID,40.0,VALID,3.089,
2019-01-24, 00:26:07,VALID,919.383,VALID,0.0,VALID,86.91,VALID,0.027,VALID,21.108,VALID,40.0,VALID,2.574,
2019-01-24, 00:27:07,VALID,919.361,VALID,0.0,VALID,87.227,VALID,0.009,VALID,21.076,VALID,40.0,VALID,2.07,
2019-01-24, 00:28:07,VALID,919.366,VALID,0.0,VALID,87.395,VALID,-0.015,VALID,21.038,VALID,41.0,VALID,2.2,
2019-01-24, 00:29:07,VALID,919.342,VALID,0.0,VALID,87.644,VALID,-0.015,VALID,21.007,VALID,41.0,VALID,2.185,
2019-01-24, 00:30:07,VALID,919.342,VALID,0.0,VALID,87.726,VALID,-0.017,VALID,20.993,VALID,40.0,VALID,1.905,
2019-01-24, 00:31:07,VALID,919.328,VALID,0.0,VALID,87.76,VALID,0.003,VALID,21.0,VALID,40.0,VALID,1.507,
2019-01-24, 00:32:07,VALID,919.342,VALID,0.0,VALID,87.764,VALID,-0.006,VALID,21.0,VALID,40.0,VALID,2.086,
2019-01-24, 00:33:07,VALID,919.35,VALID,0.0,VALID,87.915,VALID,-0.001,VALID,20.973,VALID,41.0,VALID,1.777,
2019-01-24, 00:34:07,VALID,919.385,VALID,0.0,VALID,87.98,VALID,-0.021,VALID,20.965,VALID,40.0,VALID,1.985,
2019-01-24, 00:35:07,VALID,919.37,VALID,0.0,VALID,87.819,VALID,-0.015,VALID,20.979,VALID,40.0,VALID,1.971,
2019-01-24, 00:36:07,VALID,919.367,VALID,0.0,VALID,87.619,VALID,-0.002,VALID,21.03,VALID,41.0,VALID,1.515,
2019-01-24, 00:37:07,VALID,919.365,VALID,0.0,VALID,87.571,VALID,-0.014,VALID,21.013,VALID,41.0,VALID,2.316,
2019-01-24, 00:38:07,VALID,919.364,VALID,0.0,VALID,87.432,VALID,-0.006,VALID,21.032,VALID,41.0,VALID,2.224,
2019-01-24, 00:39:07,VALID,919.377,VALID,0.0,VALID,87.201,VALID,0.002,VALID,21.062,VALID,40.0,VALID,2.665,
2019-01-24, 00:40:07,VALID,919.36,VALID,0.0,VALID,87.162,VALID,-0.009,VALID,21.079,VALID,40.0,VALID,2.205,
2019-01-24, 00:41:07,VALID,919.359,VALID,0.0,VALID,87.085,VALID,-0.012,VALID,21.089,VALID,40.0,VALID,2.333,
2019-01-24, 00:42:07,VALID,919.377,VALID,0.0,VALID,86.894,VALID,0.004,VALID,21.115,VALID,40.0,VALID,2.851,
2019-01-24, 00:43:07,VALID,919.394,VALID,0.0,VALID,86.876,VALID,-0.008,VALID,21.115,VALID,40.0,VALID,1.902,
2019-01-24, 00:44:07,VALID,919.381,VALID,0.0,VALID,86.94,VALID,-0.01,VALID,21.091,VALID,40.0,VALID,2.29,
2019-01-24, 00:45:07,VALID,919.389,VALID,0.0,VALID,87.088,VALID,-0.0,VALID,21.097,VALID,41.0,VALID,2.251,
2019-01-24, 00:46:07,VALID,919.372,VALID,0.0,VALID,87.218,VALID,0.001,VALID,21.097,VALID,40.0,VALID,1.657,
2019-01-24, 00:47:07,VALID,919.379,VALID,0.0,VALID,87.444,VALID,-0.012,VALID,21.056,VALID,40.0,VALID,2.122,
2019-01-24, 00:48:07,VALID,919.369,VALID,0.0,VALID,87.617,VALID,-0.001,VALID,21.023,VALID,40.0,VALID,2.188,
2019-01-24, 00:49:07,VALID,919.362,VALID,0.0,VALID,87.824,VALID,-0.009,VALID,21.002,VALID,38.0,VALID,1.672,
2019-01-24, 00:50:07,VALID,919.333,VALID,0.0,VALID,87.906,VALID,0.002,VALID,21.005,VALID,40.0,VALID,1.929,
2019-01-24, 00:51:07,VALID,919.334,VALID,0.0,VALID,87.789,VALID,0.004,VALID,21.004,VALID,41.0,VALID,1.674,
2019-01-24, 00:52:07,VALID,919.326,VALID,0.0,VALID,87.83,VALID,-0.003,VALID,20.988,VALID,41.0,VALID,1.721,
2019-01-24, 00:53:07,VALID,919.316,VALID,0.0,VALID,87.963,VALID,-0.01,VALID,20.958,VALID,42.0,VALID,2.124,
2019-01-24, 00:54:07,VALID,919.337,VALID,0.0,VALID,88.296,VALID,-0.009,VALID,20.931,VALID,41.0,VALID,2.373,
2019-01-24, 00:55:07,VALID,919.315,VALID,0.0,VALID,88.199,VALID,-0.006,VALID,20.97,VALID,41.0,VALID,1.798,
2019-01-24, 00:56:07,VALID,919.31,VALID,0.0,VALID,87.881,VALID,0.008,VALID,21.026,VALID,40.0,VALID,2.083,
2019-01-24, 00:57:07,VALID,919.285,VALID,0.0,VALID,87.548,VALID,0.03,VALID,21.085,VALID,40.0,VALID,2.07,
2019-01-24, 00:58:07,VALID,919.255,VALID,0.0,VALID,87.521,VALID,0.039,VALID,21.083,VALID,38.0,VALID,1.617,
2019-01-24, 00:59:07,VALID,919.238,VALID,0.0,VALID,87.486,VALID,0.032,VALID,21.054,VALID,41.0,VALID,1.78,
2019-01-24, 01:00:07,VALID,919.198,VALID,0.0,VALID,87.666,VALID,0.032,VALID,21.017,VALID,40.0,VALID,1.979,
2019-01-24, 01:01:07,VALID,919.173,VALID,0.0,VALID,87.785,VALID,0.018,VALID,20.975,VALID,41.0,VALID,1.81,
2019-01-24, 01:02:07,VALID,919.144,VALID,0.0,VALID,87.92,VALID,0.025,VALID,20.948,VALID,40.0,VALID,1.631,
2019-01-24, 01:03:07,VALID,919.111,VALID,0.0,VALID,87.869,VALID,0.036,VALID,20.93,VALID,38.0,VALID,1.104,
2019-01-24, 01:04:07,VALID,919.118,VALID,0.0,VALID,87.729,VALID,0.022,VALID,20.966,VALID,41.0,VALID,1.421,
2019-01-24, 01:05:07,VALID,919.118,VALID,0.0,VALID,87.541,VALID,0.016,VALID,20.987,VALID,32.0,VALID,0.241,
2019-01-24, 01:06:07,VALID,919.117,VALID,0.0,VALID,87.439,VALID,0.021,VALID,21.015,VALID,40.0,VALID,1.002,
2019-01-24, 01:07:07,VALID,919.113,VALID,0.0,VALID,87.369,VALID,0.016,VALID,21.043,VALID,40.0,VALID,0.411,
2019-01-24, 01:08:07,VALID,919.096,VALID,0.0,VALID,87.374,VALID,0.028,VALID,21.027,VALID,42.0,VALID,0.166,
2019-01-24, 01:09:07,VALID,919.05,VALID,0.0,VALID,87.412,VALID,0.029,VALID,21.008,INVALID,360.0,VALID,0.148,
2019-01-24, 01:10:07,VALID,919.013,VALID,0.0,VALID,87.42,VALID,0.039,VALID,20.982,INVALID,360.0,VALID,0.008,
2019-01-24, 01:11:07,VALID,919.004,VALID,0.0,VALID,87.531,VALID,0.031,VALID,20.953,VALID,40.0,VALID,0.969,
2019-01-24, 01:12:07,VALID,918.973,VALID,0.0,VALID,87.574,VALID,-0.003,VALID,20.98,VALID,41.0,VALID,0.538,
2019-01-24, 01:13:07,VALID,918.952,VALID,0.0,VALID,87.368,VALID,-0.004,VALID,20.971,VALID,42.0,VALID,0.675,
2019-01-24, 01:14:07,VALID,918.926,VALID,0.0,VALID,87.368,VALID,-0.007,VALID,20.988,VALID,38.0,VALID,0.839,
2019-01-24, 01:15:07,VALID,918.893,VALID,0.0,VALID,86.848,VALID,-0.007,VALID,21.109,VALID,39.0,VALID,0.8,
2019-01-24, 01:16:07,VALID,918.866,VALID,0.0,VALID,86.441,VALID,0.006,VALID,21.182,INVALID,360.0,VALID,0.002,
2019-01-24, 01:17:07,VALID,918.869,VALID,0.0,VALID,86.327,VALID,0.01,VALID,21.17,INVALID,360.0,VALID,0.0,
2019-01-24, 01:18:07,VALID,918.874,VALID,0.0,VALID,86.367,VALID,0.003,VALID,21.14,INVALID,360.0,VALID,0.0,
2019-01-24, 01:19:07,VALID,918.887,VALID,0.0,VALID,86.616,VALID,-0.025,VALID,21.078,INVALID,360.0,VALID,0.0,
2019-01-24, 01:20:07,VALID,918.898,VALID,0.0,VALID,86.775,VALID,0.008,VALID,20.955,INVALID,360.0,VALID,0.0,
2019-01-24, 01:21:07,VALID,918.898,VALID,0.0,VALID,87.292,VALID,-0.012,VALID,20.89,INVALID,360.0,VALID,0.0,
2019-01-24, 01:22:07,VALID,918.912,VALID,0.0,VALID,87.4,VALID,-0.006,VALID,20.908,INVALID,360.0,VALID,0.0,
2019-01-24, 01:23:07,VALID,918.905,VALID,0.0,VALID,87.27,VALID,0.0,VALID,20.97,INVALID,360.0,VALID,0.0,
2019-01-24, 01:24:07,VALID,918.888,VALID,0.0,VALID,87.099,VALID,0.01,VALID,20.987,INVALID,360.0,VALID,0.0,
2019-01-24, 01:25:07,VALID,918.872,VALID,0.0,VALID,87.15,VALID,0.018,VALID,20.982,VALID,38.0,VALID,0.465,
2019-01-24, 01:26:07,VALID,918.866,VALID,0.0,VALID,87.118,VALID,0.012,VALID,20.953,VALID,36.0,VALID,0.529,
2019-01-24, 01:27:07,VALID,918.863,VALID,0.0,VALID,87.318,VALID,0.008,VALID,20.909,VALID,40.0,VALID,0.5,
2019-01-24, 01:28:07,VALID,918.819,VALID,0.0,VALID,87.43,VALID,0.004,VALID,20.919,VALID,39.0,VALID,0.638,
2019-01-24, 01:29:07,VALID,918.829,VALID,0.0,VALID,87.438,VALID,-0.007,VALID,20.907,VALID,38.0,VALID,1.029,
2019-01-24, 01:30:07,VALID,918.816,VALID,0.0,VALID,87.064,VALID,-0.007,VALID,20.95,VALID,33.0,VALID,0.415,
2019-01-24, 01:31:07,VALID,918.803,VALID,0.0,VALID,86.837,VALID,-0.029,VALID,20.968,VALID,40.0,VALID,1.254,
2019-01-24, 01:32:07,VALID,918.771,VALID,0.0,VALID,86.819,VALID,-0.003,VALID,20.913,VALID,41.0,VALID,1.009,
2019-01-24, 01:33:07,VALID,918.755,VALID,0.0,VALID,87.213,VALID,-0.002,VALID,20.882,VALID,41.0,VALID,1.485,
2019-01-24, 01:34:07,VALID,918.751,VALID,0.0,VALID,87.036,VALID,-0.013,VALID,20.949,VALID,41.0,VALID,1.985,
2019-01-24, 01:35:07,VALID,918.717,VALID,0.0,VALID,86.859,VALID,-0.01,VALID,20.989,VALID,40.0,VALID,0.694,
2019-01-24, 01:36:07,VALID,918.723,VALID,0.0,VALID,86.752,VALID,-0.009,VALID,20.976,VALID,40.0,VALID,0.816,
2019-01-24, 01:37:07,VALID,918.727,VALID,0.0,VALID,86.702,VALID,0.005,VALID,21.008,VALID,38.0,VALID,1.149,
2019-01-24, 01:38:07,VALID,918.729,VALID,0.0,VALID,86.555,VALID,-0.013,VALID,20.987,VALID,41.0,VALID,1.66,
2019-01-24, 01:39:07,VALID,918.728,VALID,0.0,VALID,86.668,VALID,-0.007,VALID,21.022,VALID,40.0,VALID,1.141,
2019-01-24, 01:40:07,VALID,918.71,VALID,0.0,VALID,86.427,VALID,-0.022,VALID,21.079,VALID,39.0,VALID,0.454,
2019-01-24, 01:41:07,VALID,918.734,VALID,0.0,VALID,86.417,VALID,-0.01,VALID,21.078,VALID,40.0,VALID,1.048,
2019-01-24, 01:42:07,VALID,918.723,VALID,0.0,VALID,86.384,VALID,0.016,VALID,21.071,VALID,42.0,VALID,1.622,
2019-01-24, 01:43:07,VALID,918.732,VALID,0.0,VALID,86.642,VALID,0.017,VALID,21.004,VALID,43.0,VALID,1.654,
2019-01-24, 01:44:07,VALID,918.727,VALID,0.0,VALID,86.968,VALID,0.026,VALID,20.95,VALID,42.0,VALID,1.548,
2019-01-24, 01:45:07,VALID,918.73,VALID,0.0,VALID,87.195,VALID,0.024,VALID,20.944,VALID,40.0,VALID,1.568,
2019-01-24, 01:46:07,VALID,918.732,VALID,0.0,VALID,87.08,VALID,0.024,VALID,20.965,VALID,40.0,VALID,1.313,
2019-01-24, 01:47:07,VALID,918.717,VALID,0.0,VALID,87.293,VALID,0.015,VALID,20.954,VALID,40.0,VALID,1.317,
2019-01-24, 01:48:07,VALID,918.691,VALID,0.0,VALID,87.199,VALID,0.013,VALID,20.95,VALID,40.0,VALID,1.01,
2019-01-24, 01:49:07,VALID,918.679,VALID,0.0,VALID,87.349,VALID,0.005,VALID,20.892,VALID,41.0,VALID,1.8,
2019-01-24, 01:50:07,VALID,918.651,VALID,0.0,VALID,87.611,VALID,0.014,VALID,20.861,VALID,44.0,VALID,2.031,
2019-01-24, 01:51:06,VALID,918.601,VALID,0.0,VALID,87.834,VALID,0.013,VALID,20.886,VALID,42.0,VALID,1.788,
2019-01-24, 01:52:06,VALID,918.595,VALID,0.0,VALID,87.731,VALID,0.009,VALID,20.89,VALID,42.0,VALID,1.879,
2019-01-24, 01:53:06,VALID,918.547,VALID,0.0,VALID,87.867,VALID,0.009,VALID,20.911,VALID,42.0,VALID,1.947,
2019-01-24, 01:54:06,VALID,918.497,VALID,0.0,VALID,87.584,VALID,0.006,VALID,20.942,VALID,42.0,VALID,2.034,
2019-01-24, 01:55:06,VALID,918.483,VALID,0.0,VALID,87.45,VALID,0.018,VALID,20.987,VALID,40.0,VALID,1.573,
2019-01-24, 01:56:06,VALID,918.435,VALID,0.0,VALID,87.255,VALID,0.021,VALID,21.001,VALID,39.0,VALID,0.921,
2019-01-24, 01:57:06,VALID,918.418,VALID,0.0,VALID,87.406,VALID,0.002,VALID,20.942,VALID,41.0,VALID,1.302,
2019-01-24, 01:58:06,VALID,918.401,VALID,0.0,VALID,87.727,VALID,0.006,VALID,20.917,VALID,42.0,VALID,1.834,
2019-01-24, 01:59:06,VALID,918.389,VALID,0.0,VALID,87.772,VALID,0.012,VALID,20.904,VALID,43.0,VALID,1.125,
2019-01-24, 02:00:06,VALID,918.372,VALID,0.0,VALID,87.918,VALID,0.005,VALID,20.89,VALID,43.0,VALID,1.482,
2019-01-24, 02:01:06,VALID,918.378,VALID,0.0,VALID,87.932,VALID,0.018,VALID,20.887,VALID,41.0,VALID,1.38,
2019-01-24, 02:02:06,VALID,918.363,VALID,0.0,VALID,87.941,VALID,0.013,VALID,20.878,VALID,44.0,VALID,1.651,
2019-01-24, 02:03:06,VALID,918.361,VALID,0.0,VALID,87.947,VALID,0.016,VALID,20.907,VALID,43.0,VALID,1.552,
2019-01-24, 02:04:06,VALID,918.36,VALID,0.0,VALID,87.793,VALID,0.024,VALID,20.919,VALID,40.0,VALID,1.37,
2019-01-24, 02:05:06,VALID,918.336,VALID,0.0,VALID,87.861,VALID,0.014,VALID,20.915,VALID,40.0,VALID,1.71,
2019-01-24, 02:06:06,VALID,918.33,VALID,0.0,VALID,87.968,VALID,0.004,VALID,20.907,VALID,40.0,VALID,1.15,
2019-01-24, 02:07:06,VALID,918.329,VALID,0.0,VALID,87.871,VALID,0.002,VALID,20.928,VALID,40.0,VALID,0.413,
2019-01-24, 02:08:06,VALID,918.328,VALID,0.0,VALID,87.859,VALID,0.007,VALID,20.912,VALID,40.0,VALID,0.933,
2019-01-24, 02:09:06,VALID,918.324,VALID,0.0,VALID,87.931,VALID,0.02,VALID,20.861,VALID,41.0,VALID,0.872,
2019-01-24, 02:10:06,VALID,918.306,VALID,0.0,VALID,88.137,VALID,0.022,VALID,20.833,VALID,40.0,VALID,1.172,
2019-01-24, 02:11:06,VALID,918.285,VALID,0.0,VALID,88.126,VALID,0.003,VALID,20.825,VALID,42.0,VALID,1.64,
2019-01-24, 02:12:06,VALID,918.262,VALID,0.0,VALID,88.282,VALID,-0.013,VALID,20.795,VALID,41.0,VALID,2.587,
2019-01-24, 02:13:06,VALID,918.231,VALID,0.0,VALID,88.309,VALID,-0.003,VALID,20.831,VALID,41.0,VALID,2.308,
2019-01-24, 02:14:06,VALID,918.21,VALID,0.0,VALID,88.237,VALID,0.013,VALID,20.852,VALID,40.0,VALID,2.509,
2019-01-24, 02:15:06,VALID,918.177,VALID,0.0,VALID,88.122,VALID,-0.005,VALID,20.871,VALID,40.0,VALID,1.946,
2019-01-24, 02:16:06,VALID,918.171,VALID,0.0,VALID,88.138,VALID,-0.017,VALID,20.882,VALID,40.0,VALID,2.083,
2019-01-24, 02:17:06,VALID,918.183,VALID,0.0,VALID,88.113,VALID,0.003,VALID,20.873,VALID,40.0,VALID,2.42,
2019-01-24, 02:18:06,VALID,918.184,VALID,0.0,VALID,88.104,VALID,-0.011,VALID,20.901,VALID,40.0,VALID,2.855,
2019-01-24, 02:19:06,VALID,918.183,VALID,0.0,VALID,87.819,VALID,-0.009,VALID,20.951,VALID,41.0,VALID,1.974,
2019-01-24, 02:20:06,VALID,918.173,VALID,0.0,VALID,87.884,VALID,-0.005,VALID,20.931,VALID,40.0,VALID,1.747,
2019-01-24, 02:21:06,VALID,918.175,VALID,0.0,VALID,87.953,VALID,-0.011,VALID,20.88,VALID,40.0,VALID,1.42,
2019-01-24, 02:22:06,VALID,918.145,VALID,0.0,VALID,88.32,VALID,-0.011,VALID,20.788,VALID,41.0,VALID,1.143,
2019-01-24, 02:23:06,VALID,918.132,VALID,0.0,VALID,88.64,VALID,-0.023,VALID,20.707,VALID,40.0,VALID,0.934,
2019-01-24, 02:24:06,VALID,918.143,VALID,0.0,VALID,89.019,VALID,-0.005,VALID,20.648,VALID,40.0,VALID,0.452,
2019-01-24, 02:25:06,VALID,918.166,VALID,0.0,VALID,89.144,VALID,-0.014,VALID,20.615,INVALID,360.0,VALID,0.134,
2019-01-24, 02:26:06,VALID,918.189,VALID,0.0,VALID,89.375,VALID,0.0,VALID,20.587,VALID,40.0,VALID,1.504,
2019-01-24, 02:27:06,VALID,918.183,VALID,0.0,VALID,89.195,VALID,0.0,VALID,20.618,VALID,40.0,VALID,1.218,
2019-01-24, 02:28:06,VALID,918.171,VALID,0.0,VALID,89.031,VALID,0.004,VALID,20.608,VALID,40.0,VALID,0.761,
2019-01-24, 02:29:06,VALID,918.152,VALID,0.0,VALID,89.33,VALID,-0.01,VALID,20.608,VALID,37.0,VALID,0.902,
2019-01-24, 02:30:06,VALID,918.149,VALID,0.0,VALID,89.115,VALID,-0.018,VALID,20.67,VALID,36.0,VALID,0.589,
2019-01-24, 02:31:06,VALID,918.123,VALID,0.0,VALID,88.885,VALID,-0.019,VALID,20.689,VALID,39.0,VALID,0.632,
2019-01-24, 02:32:06,VALID,918.117,VALID,0.0,VALID,88.829,VALID,-0.005,VALID,20.707,VALID,39.0,VALID,0.489,
2019-01-24, 02:33:06,VALID,918.088,VALID,0.0,VALID,88.601,VALID,0.004,VALID,20.714,VALID,39.0,VALID,0.227,
2019-01-24, 02:34:06,VALID,918.113,VALID,0.0,VALID,88.528,VALID,-0.007,VALID,20.684,VALID,40.0,VALID,0.999,
2019-01-24, 02:35:06,VALID,918.11,VALID,0.0,VALID,88.667,VALID,-0.016,VALID,20.697,VALID,40.0,VALID,1.719,
2019-01-24, 02:36:06,VALID,918.126,VALID,0.0,VALID,88.444,VALID,0.003,VALID,20.741,VALID,40.0,VALID,1.5,
2019-01-24, 02:37:06,VALID,918.117,VALID,0.0,VALID,88.391,VALID,0.006,VALID,20.839,VALID,41.0,VALID,1.335,
2019-01-24, 02:38:06,VALID,918.093,VALID,0.0,VALID,88.033,VALID,0.028,VALID,20.888,VALID,43.0,VALID,1.439,
2019-01-24, 02:39:06,VALID,918.067,VALID,0.0,VALID,88.016,VALID,0.008,VALID,20.889,VALID,41.0,VALID,1.27,
2019-01-24, 02:40:06,VALID,917.997,VALID,0.0,VALID,87.95,VALID,-0.008,VALID,20.846,VALID,41.0,VALID,0.938,
2019-01-24, 02:41:06,VALID,917.959,VALID,0.0,VALID,87.927,VALID,0.004,VALID,20.798,VALID,41.0,VALID,1.619,
2019-01-24, 02:42:06,VALID,917.932,VALID,0.0,VALID,88.244,VALID,0.021,VALID,20.769,VALID,43.0,VALID,1.941,
2019-01-24, 02:43:06,VALID,917.88,VALID,0.0,VALID,88.348,VALID,0.004,VALID,20.69,VALID,43.0,VALID,2.311,
2019-01-24, 02:44:06,VALID,917.869,VALID,0.0,VALID,88.639,VALID,-0.004,VALID,20.692,VALID,41.0,VALID,1.574,
2019-01-24, 02:45:06,VALID,917.854,VALID,0.0,VALID,88.477,VALID,0.011,VALID,20.693,VALID,41.0,VALID,1.719,
2019-01-24, 02:46:06,VALID,917.843,VALID,0.0,VALID,88.497,VALID,0.023,VALID,20.705,VALID,41.0,VALID,1.977,
2019-01-24, 02:47:06,VALID,917.863,VALID,0.0,VALID,87.963,VALID,0.025,VALID,20.806,VALID,41.0,VALID,2.216,
2019-01-24, 02:48:06,VALID,917.863,VALID,0.0,VALID,87.648,VALID,0.014,VALID,20.855,VALID,41.0,VALID,1.906,
2019-01-24, 02:49:06,VALID,917.842,VALID,0.0,VALID,87.654,VALID,0.025,VALID,20.843,VALID,40.0,VALID,1.904,
2019-01-24, 02:50:06,VALID,917.83,VALID,0.0,VALID,87.648,VALID,0.023,VALID,20.881,VALID,40.0,VALID,1.686,
2019-01-24, 02:51:06,VALID,917.817,VALID,0.0,VALID,87.396,VALID,0.01,VALID,20.888,VALID,39.0,VALID,0.964,
2019-01-24, 02:52:06,VALID,917.851,VALID,0.0,VALID,87.573,VALID,0.022,VALID,20.886,VALID,36.0,VALID,0.858,
2019-01-24, 02:53:06,VALID,917.85,VALID,0.0,VALID,87.719,VALID,0.006,VALID,20.857,VALID,36.0,VALID,0.972,
2019-01-24, 02:54:06,VALID,917.854,VALID,0.0,VALID,87.914,VALID,0.014,VALID,20.844,VALID,41.0,VALID,0.454,
2019-01-24, 02:55:06,VALID,917.877,VALID,0.0,VALID,87.941,VALID,0.035,VALID,20.826,VALID,41.0,VALID,0.322,
2019-01-24, 02:56:06,VALID,917.888,VALID,0.0,VALID,88.102,VALID,0.035,VALID,20.792,VALID,37.0,VALID,0.623,
2019-01-24, 02:57:06,VALID,917.907,VALID,0.0,VALID,88.227,VALID,-0.023,VALID,20.75,VALID,40.0,VALID,1.309,
2019-01-24, 02:58:06,VALID,917.893,VALID,0.0,VALID,88.537,VALID,-0.034,VALID,20.743,VALID,38.0,VALID,1.123,
2019-01-24, 02:59:06,VALID,917.888,VALID,0.0,VALID,88.354,VALID,-0.03,VALID,20.784,VALID,39.0,VALID,0.786,
2019-01-24, 03:00:06,VALID,917.916,VALID,0.0,VALID,88.007,VALID,-0.007,VALID,20.782,VALID,40.0,VALID,1.216,
2019-01-24, 03:01:06,VALID,917.914,VALID,0.0,VALID,88.578,VALID,-0.012,VALID,20.707,VALID,40.0,VALID,1.642,
2019-01-24, 03:02:06,VALID,917.925,VALID,0.0,VALID,88.635,VALID,-0.031,VALID,20.687,VALID,40.0,VALID,1.079,
2019-01-24, 03:03:06,VALID,917.912,VALID,0.0,VALID,88.387,VALID,-0.023,VALID,20.676,VALID,40.0,VALID,0.51,
2019-01-24, 03:04:06,VALID,917.893,VALID,0.0,VALID,88.146,VALID,-0.018,VALID,20.782,VALID,40.0,VALID,1.222,
2019-01-24, 03:05:06,VALID,917.908,VALID,0.0,VALID,87.574,VALID,-0.022,VALID,20.864,VALID,40.0,VALID,1.018,
2019-01-24, 03:06:06,VALID,917.887,VALID,0.0,VALID,87.523,VALID,-0.027,VALID,20.846,VALID,40.0,VALID,1.045,
2019-01-24, 03:07:06,VALID,917.895,VALID,0.0,VALID,87.524,VALID,-0.022,VALID,20.803,VALID,41.0,VALID,1.111,
2019-01-24, 03:08:06,VALID,917.88,VALID,0.0,VALID,87.768,VALID,-0.011,VALID,20.725,VALID,41.0,VALID,1.31,
2019-01-24, 03:09:06,VALID,917.89,VALID,0.0,VALID,88.299,VALID,-0.013,VALID,20.656,VALID,41.0,VALID,1.321,
2019-01-24, 03:10:06,VALID,917.893,VALID,0.0,VALID,88.536,VALID,-0.023,VALID,20.654,VALID,40.0,VALID,1.167,
2019-01-24, 03:11:06,VALID,917.896,VALID,0.0,VALID,88.423,VALID,-0.025,VALID,20.673,VALID,40.0,VALID,1.552,
2019-01-24, 03:12:06,VALID,917.913,VALID,0.0,VALID,88.286,VALID,0.021,VALID,20.722,VALID,40.0,VALID,1.889,
2019-01-24, 03:13:06,VALID,917.906,VALID,0.0,VALID,88.082,VALID,0.03,VALID,20.774,VALID,40.0,VALID,1.423,
2019-01-24, 03:14:06,VALID,917.922,VALID,0.0,VALID,88.021,VALID,0.044,VALID,20.758,VALID,40.0,VALID,0.554,
2019-01-24, 03:15:06,VALID,917.928,VALID,0.0,VALID,88.163,VALID,0.016,VALID,20.75,VALID,41.0,VALID,0.797,
2019-01-24, 03:16:06,VALID,917.931,VALID,0.0,VALID,88.052,VALID,0.021,VALID,20.706,VALID,42.0,VALID,1.453,
2019-01-24, 03:17:06,VALID,917.915,VALID,0.0,VALID,88.644,VALID,0.028,VALID,20.588,VALID,41.0,VALID,1.33,
2019-01-24, 03:18:06,VALID,917.896,VALID,0.0,VALID,88.78,VALID,0.022,VALID,20.577,VALID,40.0,VALID,1.463,
2019-01-24, 03:19:06,VALID,917.884,VALID,0.0,VALID,88.549,VALID,0.033,VALID,20.599,VALID,41.0,VALID,1.758,
2019-01-24, 03:20:06,VALID,917.896,VALID,0.0,VALID,88.375,VALID,0.041,VALID,20.629,VALID,43.0,VALID,1.708,
2019-01-24, 03:21:06,VALID,917.942,VALID,0.0,VALID,88.393,VALID,0.036,VALID,20.661,VALID,41.0,VALID,2.12,
2019-01-24, 03:22:06,VALID,917.954,VALID,0.0,VALID,88.291,VALID,0.022,VALID,20.742,VALID,41.0,VALID,1.656,
2019-01-24, 03:23:06,VALID,917.942,VALID,0.0,VALID,88.04,VALID,0.023,VALID,20.783,VALID,40.0,VALID,1.462,
2019-01-24, 03:24:06,VALID,917.955,VALID,0.0,VALID,87.914,VALID,0.023,VALID,20.811,VALID,40.0,VALID,1.483,
2019-01-24, 03:25:06,VALID,917.965,VALID,0.0,VALID,87.795,VALID,0.033,VALID,20.814,VALID,40.0,VALID,2.084,
2019-01-24, 03:26:06,VALID,917.959,VALID,0.0,VALID,87.851,VALID,0.033,VALID,20.871,VALID,40.0,VALID,2.452,
2019-01-24, 03:27:06,VALID,917.94,VALID,0.0,VALID,87.358,VALID,0.001,VALID,21.001,VALID,42.0,VALID,2.14,
2019-01-24, 03:28:06,VALID,917.92,VALID,0.0,VALID,87.153,VALID,-0.014,VALID,21.022,VALID,40.0,VALID,1.979,
2019-01-24, 03:29:06,VALID,917.882,VALID,0.0,VALID,87.099,VALID,-0.006,VALID,21.005,VALID,42.0,VALID,1.759,
2019-01-24, 03:30:06,VALID,917.868,VALID,0.0,VALID,87.367,VALID,-0.01,VALID,20.902,VALID,42.0,VALID,1.628,
2019-01-24, 03:31:06,VALID,917.832,VALID,0.0,VALID,88.198,VALID,-0.023,VALID,20.747,VALID,44.0,VALID,1.84,
2019-01-24, 03:32:06,VALID,917.812,VALID,0.0,VALID,88.817,VALID,-0.02,VALID,20.669,VALID,43.0,VALID,2.089,
2019-01-24, 03:33:06,VALID,917.771,VALID,0.0,VALID,88.868,VALID,0.003,VALID,20.624,VALID,41.0,VALID,1.669,
2019-01-24, 03:34:06,VALID,917.756,VALID,0.0,VALID,89.079,VALID,0.0,VALID,20.553,VALID,40.0,VALID,1.919,
2019-01-24, 03:35:06,VALID,917.738,VALID,0.0,VALID,89.362,VALID,0.004,VALID,20.528,VALID,40.0,VALID,1.886,
2019-01-24, 03:36:06,VALID,917.728,VALID,0.0,VALID,89.383,VALID,0.003,VALID,20.485,VALID,42.0,VALID,1.654,
2019-01-24, 03:37:06,VALID,917.731,VALID,0.0,VALID,89.751,VALID,-0.002,VALID,20.405,VALID,41.0,VALID,1.684,
2019-01-24, 03:38:06,VALID,917.721,VALID,0.0,VALID,90.216,VALID,0.007,VALID,20.342,VALID,40.0,VALID,1.803,
2019-01-24, 03:39:06,VALID,917.701,VALID,0.0,VALID,90.741,VALID,0.015,VALID,20.273,VALID,40.0,VALID,1.846,
2019-01-24, 03:40:06,VALID,917.649,VALID,0.0,VALID,91.13,VALID,0.015,VALID,20.209,VALID,41.0,VALID,1.486,